Location: Warner Observatory
(35.1353°N, 89.5455°W)
Time: 02:46:49
(UTC-06:00)

Amateur Radio Satellites - All Passes

Search period start: 10 February 2016 02:16
Search period end: 11 February 2016 02:16
Location: Warner Observatory, 35.1353°N, 89.5455°W

Satellite Date Start Highest point End Downlink Frequencies (MHz)
Time Altitude Azimuth
CUSAT 1 10 Feb 02:26:00 02:33:23 43° 285° (WNW) 02:41:00 437.405
Cosmos 2491 10 Feb 02:43:08 02:51:51 73° 267° (W) 03:00:35 435.465 / 435.565
Oscar 19 10 Feb 02:46:47 02:49:58 17° 295° (WNW) 02:53:09 437.125/150
DANDE 10 Feb 03:00:02 03:07:07 42° 287° (WNW) 03:15:01 436.750
Cosmos 2504 10 Feb 03:07:32 03:11:41 14° 77° (ENE) 03:15:54 435.465 / 435.565
STARS 10 Feb 03:15:19 03:19:43 74° 258° (WSW) 03:24:08 437.465
BEESAT 3 10 Feb 03:15:56 03:18:28 17° 250° (WSW) 03:20:58 437.485
AO-7 10 Feb 03:16:38 03:24:32 45° 101° (E) 03:32:21 29.400- 29.500
Gurwin Techsat 1B 10 Feb 03:17:46 03:21:57 24° 293° (WNW) 03:26:07 435.225
HORYU 2 10 Feb 03:19:33 03:21:41 13° 93° (E) 03:23:47 437.375
MOZHAYETS 4 10 Feb 03:26:51 03:31:24 85° 258° (WSW) 03:36:00
PHONESAT 2.4 10 Feb 03:27:37 03:30:35 31° 4° (N) 03:33:33 2401.200-2431.200
YUBILEINY 10 Feb 03:28:02 03:36:48 77° 277° (W) 03:45:41 435.215
M-CUBED/EXP-1 PRIME 10 Feb 03:32:29 03:35:00 19° 102° (ESE) 03:37:39 437.505
KKS-1 10 Feb 03:33:38 03:37:15 24° 264° (W) 03:40:53 437.445
BEESAT 2 10 Feb 03:40:43 03:42:52 14° 251° (WSW) 03:44:59 435.950
AUBIESAT-1 10 Feb 03:42:02 03:44:45 21° 102° (ESE) 03:47:34 437.475
ITAMSAT 1 10 Feb 03:55:22 03:59:07 20° 294° (WNW) 04:02:52 435.822/435.867
AIST 2 10 Feb 03:57:26 04:01:33 71° 60° (ENE) 04:05:38 435.215
CUBESAT XI-V 10 Feb 04:08:46 04:12:34 25° 69° (ENE) 04:16:24 437.345
SO-50 10 Feb 04:39:34 04:44:27 83° 301° (WNW) 04:49:26 436.795
Cosmos 2491 10 Feb 04:45:53 04:47:02 10° 284° (WNW) 04:48:11 435.465 / 435.565
HORYU 2 10 Feb 04:54:11 04:58:26 46° 287° (WNW) 05:02:42 437.375
Cosmos 2504 10 Feb 04:55:07 05:03:37 86° 95° (E) 05:12:32 435.465 / 435.565
STRAND 1 10 Feb 04:56:36 04:57:36 11° 62° (ENE) 04:58:37 437.568
PHONESAT 2.4 10 Feb 05:04:54 05:08:09 69° 19° (NNE) 05:11:24 2401.200-2431.200
M-CUBED/EXP-1 PRIME 10 Feb 05:06:59 05:09:34 20° 293° (WNW) 05:12:15 437.505
AO-7 10 Feb 05:09:41 05:17:03 37° 297° (WNW) 05:24:24 29.400- 29.500
AUBIESAT-1 10 Feb 05:16:40 05:19:12 19° 293° (WNW) 05:21:51 437.475
YUBILEINY 10 Feb 05:31:40 05:35:07 13° 297° (WNW) 05:38:34 435.215
CUTE-I 10 Feb 05:33:42 05:38:20 29° 97° (E) 05:42:56 437.470
CUBESAT XI-V 10 Feb 05:45:50 05:49:49 28° 264° (W) 05:53:50 437.345
Cubesat XI-IV 10 Feb 05:47:12 05:52:14 39° 99° (E) 05:57:14 437.490
BRITE-PL 10 Feb 06:14:45 06:19:03 36° 97° (E) 06:23:03 437.365/2234.400
LilacSat-2 10 Feb 06:18:53 06:22:40 85° 102° (ESE) 06:26:27 437.200
SO-50 10 Feb 06:24:04 06:25:42 11° 317° (NW) 06:27:21 436.795
STRAND 1 10 Feb 06:30:55 06:36:02 82° 258° (WSW) 06:41:11 437.568
PHONESAT 2.4 10 Feb 06:42:41 06:45:13 21° 214° (SW) 06:47:43 2401.200-2431.200
Cosmos 2504 10 Feb 06:52:42 06:58:06 18° 294° (WNW) 07:03:40 435.465 / 435.565
DOVE 4 10 Feb 06:59:15 07:02:42 24° 96° (E) 07:06:06 437.250
GONETS M04 10 Feb 07:02:32 07:06:30 14° 78° (ENE) 07:10:26
HO-68 10 Feb 07:09:49 07:15:12 22° 94° (E) 07:20:34 435.675
CANX-2 10 Feb 07:11:56 07:14:31 16° 93° (E) 07:17:06 2200.000
PRISM 10 Feb 07:12:49 07:16:57 90° 253° (WSW) 07:21:10 437.425
CUTE-I 10 Feb 07:13:37 07:18:17 31° 291° (WNW) 07:22:56 437.470
GOMX 1 10 Feb 07:18:59 07:23:22 84° 286° (WNW) 07:27:33 467.674
O/OREOS (USA 219) 10 Feb 07:21:56 07:26:17 56° 107° (ESE) 07:30:42 437.305
Cubesat XI-IV 10 Feb 07:27:51 07:32:01 23° 293° (WNW) 07:36:09 437.490
JUGNU 10 Feb 07:34:24 07:37:01 13° 168° (SSE) 07:39:38 437.505
CINEMA 3 10 Feb 07:51:04 07:54:46 31° 98° (E) 07:58:30 145.822/145.860
COMPASS 1 10 Feb 07:52:53 07:56:12 22° 95° (E) 07:59:30 437.405
BRITE-PL 10 Feb 07:54:08 07:57:11 17° 294° (WNW) 08:00:05 437.365/2234.400
CUBEBUG 2 10 Feb 07:57:35 07:59:14 12° 93° (E) 08:00:53 437.445
CUTE 1.7 + AOD 2 10 Feb 08:01:09 08:05:22 54° 100° (E) 08:09:33 437.475
Cosmos 2499 10 Feb 08:06:26 08:11:38 18° 79° (E) 08:16:53 435.465 / 435.565
SEEDS 10 Feb 08:07:00 08:11:07 46° 99° (E) 08:15:12 437.485
AAUSAT CUBESAT 2 10 Feb 08:20:42 08:24:39 38° 98° (E) 08:28:34 437.432
DOVE 4 10 Feb 08:37:07 08:40:17 21° 291° (WNW) 08:43:25 437.250
CANX-2 10 Feb 08:46:31 08:50:28 36° 287° (WNW) 08:54:24 2200.000
ZACube-1 10 Feb 08:49:19 08:52:49 25° 96° (E) 08:56:21 437.345
GONETS M04 10 Feb 08:53:15 09:01:56 88° 95° (E) 09:10:41
HO-68 10 Feb 08:56:12 09:03:15 59° 290° (WNW) 09:10:16 435.675
ANTELSAT 10 Feb 08:56:16 08:59:46 24° 70° (ENE) 09:03:13 437.575/2403.000
FUNcube-1 10 Feb 08:58:00 09:01:43 30° 97° (E) 09:05:31 145.935
TIGRISAT 10 Feb 09:02:50 09:06:29 27° 71° (ENE) 09:10:06 435.000
O/OREOS (USA 219) 10 Feb 09:04:08 09:06:03 12° 303° (WNW) 09:07:59 437.305
SRMSAT 10 Feb 09:12:03 09:13:42 11° 166° (SSE) 09:15:21 437.500
JUGNU 10 Feb 09:21:30 09:25:17 18° 178° (S) 09:29:04 437.505
AIST 1 10 Feb 09:23:23 09:25:56 15° 86° (E) 09:28:29
COMPASS 1 10 Feb 09:28:13 09:31:41 25° 289° (WNW) 09:35:08 437.405
CINEMA 3 10 Feb 09:28:59 09:31:40 17° 291° (WNW) 09:34:24 145.822/145.860
Oscar 11 10 Feb 09:30:02 09:34:23 79° 284° (WNW) 09:38:44 145.826/435.025
DELFI C3 10 Feb 09:31:32 09:35:31 55° 100° (E) 09:39:29 145.870
UWE-3 10 Feb 09:31:47 09:35:58 65° 284° (WNW) 09:40:14 435.000/436.395/437.385
CUBEBUG 2 10 Feb 09:32:02 09:36:02 45° 286° (WNW) 09:40:07 437.445
CUTE 1.7 + AOD 2 10 Feb 09:39:19 09:40:42 11° 294° (WNW) 09:42:05 437.475
AO-85 10 Feb 09:39:54 09:45:04 61° 115° (ESE) 09:50:29 145.980
SEEDS 10 Feb 09:44:26 09:46:23 13° 293° (WNW) 09:48:20 437.485
UNISAT 6 10 Feb 09:46:51 09:51:12 82° 258° (WSW) 09:55:30 437.425
Cosmos 2499 10 Feb 09:54:53 10:03:32 84° 276° (W) 10:12:30 435.465 / 435.565
POLYITAN 1 10 Feb 09:55:22 09:58:54 26° 71° (ENE) 10:02:25 437.675
QB50P2 10 Feb 09:55:55 09:59:30 27° 71° (ENE) 10:03:06 145.880/145.840
PCSat 10 Feb 09:57:08 10:02:16 46° 111° (ESE) 10:07:27 145.827
AAUSAT CUBESAT 2 10 Feb 09:57:25 09:59:48 15° 292° (WNW) 10:02:09 437.432
BUGSAT 1 10 Feb 09:57:27 09:59:19 13° 67° (ENE) 10:01:10 437.445
RS-15 10 Feb 10:13:20 10:23:17 41° 107° (ESE) 10:33:40 29.354- 29.394
POPSAT HIP 1 10 Feb 10:24:54 10:29:03 58° 75° (ENE) 10:33:13 437.405
ZACube-1 10 Feb 10:25:40 10:28:59 23° 290° (WNW) 10:32:20 437.345
NANOSAT C BR1 10 Feb 10:29:17 10:33:28 65° 76° (ENE) 10:37:39 145.865
DUCHIFAT 1 10 Feb 10:30:31 10:34:41 64° 76° (ENE) 10:38:52 145.980
ANTELSAT 10 Feb 10:32:55 10:36:23 23° 264° (W) 10:39:51 437.575/2403.000
FUNcube-1 10 Feb 10:34:46 10:37:45 19° 291° (WNW) 10:40:47 145.935
QB50P1 10 Feb 10:37:25 10:41:39 86° 79° (ENE) 10:45:54 145.935-145.965
VELOX 1 10 Feb 10:39:03 10:42:29 22° 96° (E) 10:45:51 145.980
HUMSAT D 10 Feb 10:39:53 10:43:58 54° 285° (WNW) 10:48:04 437.325/437.525
TIGRISAT 10 Feb 10:39:53 10:43:08 21° 264° (W) 10:46:22 435.000
GONETS M04 10 Feb 10:54:52 10:59:52 16° 294° (WNW) 11:04:54
AISAT 10 Feb 10:55:18 10:59:21 35° 98° (E) 11:03:22 437.250
SRMSAT 10 Feb 10:58:24 11:02:06 17° 176° (S) 11:05:48 437.500
AIST 1 10 Feb 10:59:07 11:03:10 36° 281° (W) 11:07:14
UKube-1 10 Feb 11:05:29 11:09:33 40° 99° (E) 11:13:36 .
JUGNU 10 Feb 11:10:18 11:13:33 15° 189° (S) 11:16:48 437.505
50 SAT 10 Feb 11:13:13 11:17:01 78° 101° (E) 11:20:50 437.505
CUBEBUG 1 10 Feb 11:13:30 11:17:42 46° 99° (E) 11:21:51 437.445
SPROUT 10 Feb 11:15:09 11:17:42 15° 94° (E) 11:20:14 437.525
DX 1 10 Feb 11:18:10 11:22:31 70° 101° (ESE) 11:26:49 434.975-435.025
ESTCUBE 1 10 Feb 11:18:44 11:23:18 76° 103° (ESE) 11:27:48 437.505/2401.250
AO-85 10 Feb 11:22:07 11:26:02 20° 312° (NW) 11:30:02 145.980
CUSAT 1 10 Feb 11:28:03 11:30:48 14° 62° (ENE) 11:33:14 437.405
BUGSAT 1 10 Feb 11:30:13 11:34:17 45° 261° (W) 11:38:18 437.445
POLYITAN 1 10 Feb 11:31:26 11:34:39 21° 264° (W) 11:37:53 437.675
QB50P2 10 Feb 11:32:08 11:35:17 20° 265° (W) 11:38:26 145.880/145.840
PCSat 10 Feb 11:41:41 11:45:52 22° 307° (NW) 11:50:05 145.827
Cosmos 2499 10 Feb 11:53:11 11:57:57 15° 295° (WNW) 12:02:48 435.465 / 435.565
DANDE 10 Feb 12:04:15 12:09:13 21° 65° (ENE) 12:13:19 436.750
VELOX 1 10 Feb 12:15:09 12:18:54 28° 290° (WNW) 12:22:37 145.980
Oscar 19 10 Feb 12:19:38 12:24:40 54° 73° (ENE) 12:29:42 437.125/150
JAS-2 10 Feb 12:22:47 12:30:08 50° 71° (ENE) 12:36:55 435.910
RS-15 10 Feb 12:24:33 12:35:17 53° 308° (NW) 12:46:41 29.354- 29.394
AISAT 10 Feb 12:32:38 12:35:32 18° 293° (WNW) 12:38:26 437.250
UKube-1 10 Feb 12:42:44 12:45:14 15° 293° (WNW) 12:47:44 .
SRMSAT 10 Feb 12:46:56 12:50:32 17° 186° (S) 12:54:09 437.500
SPROUT 10 Feb 12:49:52 12:53:46 36° 287° (WNW) 12:57:39 437.525
CUBEBUG 1 10 Feb 12:51:26 12:53:33 13° 294° (WNW) 12:55:38 437.445
Gurwin Techsat 1B 10 Feb 12:55:13 13:00:12 43° 71° (ENE) 13:05:11 435.225
TISAT 1 10 Feb 12:56:25 13:00:36 90° 284° (WNW) 13:04:46 437.305
CUSAT 1 10 Feb 13:08:34 13:13:50 48° 269° (W) 13:17:48 437.405
SWISSCUBE 10 Feb 13:13:04 13:16:54 24° 96° (E) 13:20:44 437.505
SO-50 10 Feb 13:14:34 13:19:00 37° 54° (NE) 13:23:18 436.795
ITAMSAT 1 10 Feb 13:29:47 13:34:44 48° 72° (ENE) 13:39:44 435.822/435.867
YUBILEINY 10 Feb 13:42:31 13:50:57 47° 77° (ENE) 13:59:18 435.215
Cosmos 2491 10 Feb 13:45:34 13:52:23 27° 83° (E) 13:59:11 435.465 / 435.565
DANDE 10 Feb 13:46:23 13:52:42 46° 270° (W) 13:57:29 436.750
ITUPSAT 1 10 Feb 13:49:32 13:54:15 52° 101° (E) 13:58:56 437.325
BEESAT 10 Feb 13:57:33 14:02:19 66° 102° (ESE) 14:07:05 436.000
Oscar 19 10 Feb 14:01:19 14:04:15 15° 267° (W) 14:07:11 437.125/150
JAS-2 10 Feb 14:08:38 14:15:10 30° 264° (W) 14:21:20 435.910
AO-7 10 Feb 14:11:57 14:19:48 47° 65° (ENE) 14:27:41 29.400- 29.500
M-CUBED/EXP-1 PRIME 10 Feb 14:17:42 14:19:52 15° 66° (ENE) 14:21:58 437.505
ISS 10 Feb 14:23:52 14:26:48 32° 132° (SE) 14:29:44 145.825
AUBIESAT-1 10 Feb 14:26:48 14:29:04 16° 66° (ENE) 14:31:16 437.475
Gurwin Techsat 1B 10 Feb 14:36:28 14:40:17 20° 266° (W) 14:44:07 435.225
SRMSAT 10 Feb 14:38:38 14:38:56 10° 195° (SSW) 14:39:14 437.500
RS-15 10 Feb 14:44:26 14:51:29 17° 337° (NNW) 14:58:45 29.354- 29.394
SWISSCUBE 10 Feb 14:50:29 14:54:40 31° 290° (WNW) 14:58:50 437.505
Cosmos 2504 10 Feb 14:53:21 15:00:18 27° 71° (ENE) 15:06:51 435.465 / 435.565
SO-50 10 Feb 14:55:41 14:59:13 21° 251° (WSW) 15:02:39 436.795
STARS 10 Feb 15:08:32 15:12:07 25° 96° (E) 15:15:42 437.465
ITAMSAT 1 10 Feb 15:11:06 15:14:25 17° 266° (W) 15:17:45 435.822/435.867
MOZHAYETS 4 10 Feb 15:25:27 15:29:29 29° 96° (E) 15:33:30
KKS-1 10 Feb 15:26:44 15:31:11 82° 103° (ESE) 15:35:36 437.445
BEESAT 3 10 Feb 15:27:41 15:29:17 12° 108° (ESE) 15:30:52 437.485
ITUPSAT 1 10 Feb 15:28:58 15:31:37 15° 295° (WNW) 15:34:14 437.325
BEESAT 10 Feb 15:37:49 15:39:30 12° 296° (WNW) 15:41:12 436.000
YUBILEINY 10 Feb 15:39:48 15:47:22 34° 275° (W) 15:54:56 435.215
Cosmos 2491 10 Feb 15:40:04 15:48:34 57° 280° (W) 15:57:07 435.465 / 435.565
HORYU 2 10 Feb 15:48:39 15:53:04 77° 258° (WSW) 15:57:29 437.375
M-CUBED/EXP-1 PRIME 10 Feb 15:51:08 15:54:20 26° 257° (WSW) 15:57:22 437.505
BEESAT 2 10 Feb 15:52:24 15:54:43 15° 109° (ESE) 15:57:04 435.950
AUBIESAT-1 10 Feb 16:00:24 16:03:29 25° 257° (WSW) 16:06:25 437.475
ISS 10 Feb 16:00:41 16:03:17 22° 327° (NNW) 16:05:53 145.825
AO-7 10 Feb 16:05:12 16:12:37 35° 261° (W) 16:20:05 29.400- 29.500
STARS 10 Feb 16:44:52 16:48:23 24° 290° (WNW) 16:51:53 437.465
Cosmos 2504 10 Feb 16:45:51 16:54:07 56° 270° (W) 17:01:47 435.465 / 435.565
CUTE-I 10 Feb 16:52:24 16:57:10 35° 70° (ENE) 17:01:58 437.470
LilacSat-2 10 Feb 16:58:16 17:01:25 25° 72° (ENE) 17:04:34 437.200
BEESAT 3 10 Feb 17:02:48 17:06:36 44° 302° (WNW) 17:10:27 437.485
MOZHAYETS 4 10 Feb 17:02:49 17:06:29 24° 291° (WNW) 17:10:09
RS-15 10 Feb 17:04:58 17:11:17 15° 16° (NNE) 17:17:40 29.354- 29.394
Cubesat XI-IV 10 Feb 17:06:01 17:11:05 47° 72° (ENE) 17:16:11 437.490
BRITE-PL 10 Feb 17:20:55 17:26:05 36° 71° (ENE) 17:31:08 437.365/2234.400
BEESAT 2 10 Feb 17:28:32 17:32:17 37° 304° (NW) 17:36:02 435.950
O/OREOS (USA 219) 10 Feb 17:34:56 17:39:30 64° 69° (ENE) 17:44:03 437.305
HO-68 10 Feb 17:38:24 17:41:06 12° 55° (NE) 17:43:48 435.675
CUBESAT XI-V 10 Feb 17:44:47 17:49:30 86° 286° (WNW) 17:54:10 437.345
AIST 2 10 Feb 17:52:10 17:55:53 32° 113° (ESE) 17:59:35 435.215
DOVE 4 10 Feb 18:01:17 18:05:10 22° 70° (ENE) 18:08:55 437.250
AO-85 10 Feb 18:15:58 18:20:06 24° 49° (NE) 18:23:56 145.980
GOMX 1 10 Feb 18:22:25 18:27:50 73° 76° (ENE) 18:33:03 467.674
CUTE-I 10 Feb 18:32:55 18:37:12 25° 264° (W) 18:41:33 437.470
LilacSat-2 10 Feb 18:33:07 18:35:42 17° 265° (W) 18:38:17 437.200
COMPASS 1 10 Feb 18:43:27 18:44:02 10° 65° (ENE) 18:44:36 437.405
STRAND 1 10 Feb 18:44:49 18:49:45 44° 99° (E) 18:54:39 437.568
Cubesat XI-IV 10 Feb 18:47:47 18:51:21 18° 266° (W) 18:54:57 437.490
PCSat 10 Feb 18:48:50 18:52:51 21° 52° (NE) 18:56:50 145.827
CINEMA 3 10 Feb 18:49:53 18:53:27 22° 70° (ENE) 18:56:54 145.822/145.860
CUTE 1.7 + AOD 2 10 Feb 18:51:10 18:54:37 25° 71° (ENE) 18:58:04 437.475
SEEDS 10 Feb 18:56:20 18:59:30 21° 70° (ENE) 19:02:40 437.485
PRISM 10 Feb 18:59:05 19:01:38 16° 94° (E) 19:04:10 437.425
BRITE-PL 10 Feb 18:59:43 19:04:29 27° 265° (W) 19:09:13 437.365/2234.400
GONETS M04 10 Feb 19:07:52 19:15:54 38° 75° (ENE) 19:23:55
AAUSAT CUBESAT 2 10 Feb 19:08:56 19:11:40 17° 69° (ENE) 19:14:25 437.432
RS-15 10 Feb 19:17:17 19:28:34 41° 47° (NE) 19:39:56 29.354- 29.394
HO-68 10 Feb 19:20:27 19:27:36 76° 73° (ENE) 19:34:47 435.675
AIST 2 10 Feb 19:31:15 19:34:24 21° 308° (NW) 19:37:35 435.215
CANX-2 10 Feb 19:35:31 19:39:43 80° 259° (W) 19:43:57 2200.000
DOVE 4 10 Feb 19:37:55 19:42:38 36° 262° (W) 19:47:09 437.250
ZACube-1 10 Feb 19:43:38 19:45:43 14° 68° (ENE) 19:47:47 437.345
FUNcube-1 10 Feb 19:51:41 19:54:15 16° 68° (ENE) 19:56:49 145.935
Cosmos 2499 10 Feb 19:51:51 19:58:52 29° 72° (ENE) 20:05:24 435.465 / 435.565
AO-85 10 Feb 19:56:08 20:00:44 37° 248° (WSW) 20:04:56 145.980
GOMX 1 10 Feb 20:04:23 20:06:14 12° 269° (W) 20:08:04 467.674
COMPASS 1 10 Feb 20:15:01 20:19:04 55° 260° (W) 20:23:10 437.405
DELFI C3 10 Feb 20:15:26 20:18:25 21° 70° (ENE) 20:21:25 145.870
Oscar 11 10 Feb 20:21:23 20:25:32 51° 75° (ENE) 20:29:44 145.826/435.025
STRAND 1 10 Feb 20:24:57 20:28:33 19° 294° (WNW) 20:32:09 437.568
UWE-3 10 Feb 20:25:27 20:29:42 65° 76° (ENE) 20:33:52 435.000/436.395/437.385
CINEMA 3 10 Feb 20:26:22 20:30:25 29° 263° (W) 20:34:21 145.822/145.860
CUBEBUG 2 10 Feb 20:26:34 20:30:56 84° 258° (WSW) 20:35:11 437.445
CUTE 1.7 + AOD 2 10 Feb 20:27:07 20:30:22 22° 265° (W) 20:33:39 437.475
PCSat 10 Feb 20:31:16 20:36:32 52° 248° (WSW) 20:41:44 145.827
SEEDS 10 Feb 20:31:35 20:35:03 25° 264° (W) 20:38:33 437.485
PRISM 10 Feb 20:33:16 20:37:02 34° 288° (WNW) 20:40:47 437.425
AAUSAT CUBESAT 2 10 Feb 20:43:15 20:46:55 31° 263° (W) 20:50:37 437.432
ISS 10 Feb 20:54:49 20:56:33 14° 27° (NNE) 20:58:15 145.825
GONETS M04 10 Feb 21:04:36 21:12:39 42° 272° (W) 21:20:44
AIST 1 10 Feb 21:09:19 21:13:21 37° 79° (E) 21:17:20
HO-68 10 Feb 21:11:37 21:15:53 17° 268° (W) 21:20:10 435.675
ZACube-1 10 Feb 21:17:39 21:21:39 41° 261° (W) 21:25:37 437.345
FUNcube-1 10 Feb 21:26:23 21:30:14 34° 262° (W) 21:34:02 145.935
HUMSAT D 10 Feb 21:27:50 21:31:52 65° 77° (ENE) 21:35:55 437.325/437.525
RS-15 10 Feb 21:29:40 21:41:35 61° 249° (WSW) 21:53:32 29.354- 29.394
VELOX 1 10 Feb 21:34:27 21:36:49 14° 66° (ENE) 21:39:12 145.980
UNISAT 6 10 Feb 21:42:02 21:45:40 25° 97° (E) 21:49:21 437.425
Cosmos 2499 10 Feb 21:44:23 21:52:14 49° 271° (W) 21:59:29 435.465 / 435.565
DELFI C3 10 Feb 21:50:00 21:53:11 23° 264° (W) 21:56:25 145.870
AISAT 10 Feb 21:50:04 21:53:33 23° 69° (ENE) 21:57:00 437.250
50 SAT 10 Feb 21:50:59 21:53:53 22° 71° (ENE) 21:56:49 437.505
UKube-1 10 Feb 21:57:24 22:00:49 23° 69° (ENE) 22:04:16 .
Oscar 11 10 Feb 22:00:50 22:01:57 11° 268° (W) 22:03:03 145.826/435.025
CUBEBUG 1 10 Feb 22:06:33 22:10:15 27° 70° (ENE) 22:13:58 437.445
DX 1 10 Feb 22:10:28 22:14:33 39° 72° (ENE) 22:18:39 434.975-435.025
ESTCUBE 1 10 Feb 22:14:58 22:19:17 46° 73° (ENE) 22:23:38 437.505/2401.250
POPSAT HIP 1 10 Feb 22:15:05 22:16:40 12° 93° (E) 22:18:14 437.405
NANOSAT C BR1 10 Feb 22:18:48 22:20:45 13° 93° (E) 22:22:42 145.865
DUCHIFAT 1 10 Feb 22:19:52 22:21:42 13° 93° (E) 22:23:33 145.980
ANTELSAT 10 Feb 22:26:27 22:30:49 86° 98° (E) 22:35:18 437.575/2403.000
QB50P1 10 Feb 22:26:34 22:29:20 17° 94° (E) 22:32:07 145.935-145.965
ISS 10 Feb 22:30:05 22:33:20 74° 224° (SW) 22:36:33 145.825
TIGRISAT 10 Feb 22:32:59 22:37:21 84° 283° (WNW) 22:41:48 435.000
AIST 1 10 Feb 22:48:18 22:50:33 14° 274° (W) 22:52:47
VELOX 1 10 Feb 23:08:35 23:12:53 46° 260° (W) 23:17:12 145.980
BUGSAT 1 10 Feb 23:15:34 23:19:06 29° 98° (E) 23:22:37 437.445
PHONESAT 2.4 10 Feb 23:18:08 23:21:01 28° 148° (SSE) 23:23:55 2401.200-2431.200
POLYITAN 1 10 Feb 23:18:24 23:22:37 78° 102° (ESE) 23:26:48 437.675
UNISAT 6 10 Feb 23:18:47 23:22:16 24° 290° (WNW) 23:25:48 437.425
QB50P2 10 Feb 23:18:59 23:23:13 82° 101° (ESE) 23:27:26 145.880/145.840
50 SAT 10 Feb 23:25:13 23:27:50 18° 265° (W) 23:30:29 437.505
AISAT 10 Feb 23:26:00 23:29:51 28° 263° (W) 23:33:43 437.250
UKube-1 10 Feb 23:33:09 23:36:44 25° 263° (W) 23:40:22 .
SPROUT 10 Feb 23:39:44 23:44:02 74° 258° (WSW) 23:48:20 437.525
CUBEBUG 1 10 Feb 23:42:56 23:46:28 23° 264° (W) 23:50:01 437.445
TISAT 1 10 Feb 23:44:54 23:48:53 42° 73° (ENE) 23:52:52 437.305
DX 1 10 Feb 23:48:19 23:50:52 15° 266° (W) 23:53:25 434.975-435.025
POPSAT HIP 1 10 Feb 23:48:39 23:52:40 45° 286° (WNW) 23:56:40 437.405
NANOSAT C BR1 10 Feb 23:52:43 23:56:40 41° 287° (WNW) 00:00:36 145.865
DUCHIFAT 1 10 Feb 23:53:39 23:57:36 42° 287° (WNW) 00:01:32 145.980
ESTCUBE 1 10 Feb 23:54:02 23:56:17 14° 267° (W) 23:58:35 437.505/2401.250
QB50P1 11 Feb 00:01:26 00:05:10 31° 288° (WNW) 00:08:52 145.935-145.965
SWISSCUBE 11 Feb 00:17:00 00:20:23 20° 67° (ENE) 00:23:46 437.505
CUSAT 1 11 Feb 00:23:10 00:29:48 31° 87° (E) 00:36:35 437.405
Oscar 19 11 Feb 00:35:04 00:39:12 24° 96° (E) 00:43:18 437.125/150
BUGSAT 1 11 Feb 00:51:36 00:54:15 17° 292° (WNW) 00:56:53 437.445
ITUPSAT 1 11 Feb 00:53:10 00:57:37 42° 72° (ENE) 01:02:07 437.325
PHONESAT 2.4 11 Feb 00:54:56 00:58:10 55° 342° (NNW) 01:01:24 2401.200-2431.200
BEESAT 11 Feb 01:00:42 01:05:18 52° 73° (ENE) 01:09:56 436.000
DANDE 11 Feb 01:05:20 01:12:11 37° 87° (E) 01:19:43 436.750
Gurwin Techsat 1B 11 Feb 01:15:16 01:19:21 22° 95° (E) 01:23:25 435.225
JAS-2 11 Feb 01:21:46 01:27:05 47° 99° (E) 01:32:04 435.910
TISAT 1 11 Feb 01:22:44 01:24:43 13° 267° (W) 01:26:42 437.305
BEESAT 3 11 Feb 01:23:22 01:27:01 34° 56° (NE) 01:30:37 437.485
ITAMSAT 1 11 Feb 01:46:31 01:50:34 22° 95° (E) 01:54:34 435.822/435.867
BEESAT 2 11 Feb 01:49:36 01:53:25 43° 57° (ENE) 01:57:11 435.950
SWISSCUBE 11 Feb 01:53:30 01:57:52 37° 261° (W) 02:02:19 437.505
Cosmos 2491 11 Feb 01:54:05 02:02:47 63° 81° (E) 02:11:26 435.465 / 435.565
STARS 11 Feb 02:03:08 02:05:46 16° 67° (ENE) 02:08:24 437.465
